Regional Weather Roundup
Issued by NWS

Home | Current Version | Previous Version | Text Only | Print | Product List | Glossary Off
Versions: 1 2 3 4 5 6 7 8 9 10 11 12 13 14 15 16 17 18 19 20 21 22 23 24 25 26 27 28 29 30 31 32 33 34 35 36 37 38 39 40 41 42 43 44 45 46 47 48 49 50

013
ASUS43 KOAX 272210
RWRNE

WEATHER ROUNDUP FOR NEBRASKA
NATIONAL WEATHER SERVICE OMAHA NE
500 PM CDT THU APR 27 2017

NOTES: SATELLITE DATA IS BEING USED TO AUGMENT CLOUD COVER ABOVE
       12000 FEET.
       "FAIR" INDICATES FEW OR NO CLOUDS BELOW 12,000 FEET WITH NO
       SIGNIFICANT WEATHER AND/OR OBSTRUCTIONS TO VISIBILITY.

  * THESE STATIONS DO NOT REPORT WEATHER SUCH AS RAIN...SNOW OR FOG.

NEZ001>004-019>022-054>056-272300-
NEBRASKA PANHANDLE

CITY           SKY/WX    TMP DP  RH WIND       PRES   REMARKS
SCOTTSBLUFF    CLOUDY    48  40  73 SE8       29.55R
ALLIANCE       LGT RAIN  47  39  74 S15       29.55R
CHADRON        CLOUDY    49  34  56 E16       29.56S
KIMBALL        RAIN      37  35  94 NW10      29.58R WCI  29
SIDNEY         LGT RAIN  49  37  63 NE10      29.53F
$$

NEZ057>060-069>072-079>082-272300-
SOUTHWEST NEBRASKA

CITY           SKY/WX    TMP DP  RH WIND       PRES   REMARKS
NORTH PLATTE   PTSUNNY   55  38  52 SE16G24   29.58S
IMPERIAL       LGT RAIN  49  38  65 SE22G32   29.53S
LEXINGTON      PTSUNNY   54  37  53 E17       29.61F
MCCOOK         CLOUDY    54  38  54 E17       29.56F
OGALLALA       CLOUDY    58  37  45 SE13G21   29.54S
$$

NEZ005>010-023>029-035>040-094-272300-
NORTH CENTRAL NEBRASKA

CITY           SKY/WX    TMP DP  RH WIND       PRES   REMARKS
VALENTINE      MOSUNNY   56  29  35 E12       29.62F
AINSWORTH      MOSUNNY   53  34  47 E6        29.63F
BROKEN BOW     CLOUDY    53  35  50 SE14G24   29.61F
O`NEILL        SUNNY     52  31  44 CALM      29.67S
ORD            CLOUDY    52  34  50 E6        29.64F
THEDFORD       CLOUDY    54  36  51 E10       29.60F
$$

NEZ041-046>049-061>064-073>077-083>087-272300-
SOUTH CENTRAL NEBRASKA

CITY           SKY/WX    TMP DP  RH WIND       PRES   REMARKS
GRAND ISLAND   LGT RAIN  54  37  52 S12       29.66F
AURORA         LGT RAIN  56  32  40 S6        29.67R
HASTINGS       CLOUDY    55  33  43 SE14      29.66F
HEBRON         CLOUDY    57  34  40 S10       29.68S
HOLDREGE       CLOUDY    56  34  43 S16       29.62S
KEARNEY *      CLOUDY    54  36  50 SE17      29.65S
YORK           PTSUNNY   57  30  35 S7        29.67S
$$

NEZ011>018-030>034-042>045-272300-
NORTHEAST NEBRASKA

CITY           SKY/WX    TMP DP  RH WIND       PRES   REMARKS
NORFOLK        SUNNY     52  33  48 CALM      29.67F
ALBION         CLOUDY    55  33  43 CALM      29.67S
BLAIR          MOSUNNY   56  34  44 W7        29.69S
FREMONT        CLOUDY    57  32  39 CALM      29.69S
TEKAMAH        SUNNY     58  33  39 W13       29.68F
WAYNE          MOSUNNY   53  35  51 W5        29.69S
$$

NEZ050>053-065>068-078-088>093-272300-
SOUTHEAST NEBRASKA

CITY           SKY/WX    TMP DP  RH WIND       PRES   REMARKS
LINCOLN        CLOUDY    58  35  42 S9        29.70S
OMAHA EPPLEY   MOSUNNY   58  34  40 NW8       29.69F
BEATRICE       CLOUDY    57  34  41 CALM      29.70S
FALLS CITY     CLOUDY    59  35  40 CALM      29.70S
NEBRASKA CITY  CLOUDY    57  25  29 W6        29.70S
PLATTSMOUTH    MOSUNNY   57  28  33 SW7       29.69S
$$

NEZ044-045-051>053-067-272300-
OMAHA AREA

CITY           SKY/WX    TMP DP  RH WIND       PRES   REMARKS
OMAHA EPPLEY   MOSUNNY   58  34  40 NW8       29.69F
BLAIR          MOSUNNY   56  34  44 W7        29.69S
FREMONT        CLOUDY    57  32  39 CALM      29.69S
MILLARD        MOSUNNY   58  36  43 NW8       29.69S
OFFUTT AFB     PTSUNNY   57  34  42 CALM      29.69S
PLATTSMOUTH    MOSUNNY   57  28  33 SW7       29.69S
WAHOO          FAIR      58  30  34 SW6       29.68S
$$




USA.gov is the U.S. government's official web portal to all federal, state and local government web resources and services.